Regional Weather Roundup
Issued by NWS

Home | Current Version | Previous Version | Graphics & Text | Print | Product List | Glossary On
Versions: 1 2 3 4 5 6 7 8 9 10 11 12 13 14 15 16 17 18 19 20 21 22 23 24 25 26 27 28 29 30 31 32 33 34 35 36 37 38 39 40 41 42 43 44 45 46 47 48 49 50
000
ASUS43 KLMK 212010
RWRKY
KENTUCKY REGIONAL WEATHER ROUNDUP
NATIONAL WEATHER SERVICE LOUISVILLE KY
300 PM EST SUN JAN 21 2018

NOTE "FAIR" INDICATES FEW OR NO CLOUDS BELOW 12,000 FEET
WITH NO SIGNIFICANT WEATHER AND/OR OBSTRUCTIONS TO VISIBILITY.

KYZ001>023-026-027-061>063-070>075-212100-
WESTERN AND SOUTH CENTRAL KENTUCKY

CITY           SKY/WX    TMP DP  RH WIND       PRES   REMARKS
PADUCAH        CLOUDY    58  51  78 S7        29.99F
HENDERSON      NOT AVBL
OWENSBORO      CLOUDY    51  47  86 S9        30.03F
HOPKINSVILLE   FAIR      63  52  67 S15       30.04F
BOWLING GREEN  CLOUDY    63  52  67 S13G20    30.07F
GLASGOW        CLOUDY    59  53  80 S5        30.08F
$$

KYZ024-025-028>034-038-045-046-053-212100-
NORTH CENTRAL KENTUCKY

CITY           SKY/WX    TMP DP  RH WIND       PRES   REMARKS
LOUISVILLE/SDF CLOUDY    58  50  75 SW13      30.05F
LOUISVILLE/LOU CLOUDY    57  51  80 S8        30.06F
FORT KNOX      CLOUDY    57  50  77 S10       30.06R
$$

KYZ035>037-039>044-047>052-055>060-089>105-212100-
NORTHEAST KENTUCKY

CITY           SKY/WX    TMP DP  RH WIND       PRES   REMARKS
LEXINGTON      CLOUDY    59  50  72 SW12      30.08F
COVINGTON      CLOUDY    55  49  80 SW10G18   30.04S
FRANKFORT      CLOUDY    55  48  77 SW7       30.06F
$$

KYZ054-064>069-076>088-106>120-212100-
SOUTHEAST KENTUCKY

CITY           SKY/WX    TMP DP  RH WIND       PRES   REMARKS
JACKSON        CLOUDY    61  45  55 VRB5      30.12F
LONDON         CLOUDY    63  44  50 S10       30.12F
SOMERSET       CLOUDY    61  45  55 S5        30.12S
MIDDLESBORO    FAIR      57  40  53 S5        30.17F
MONTICELLO     CLOUDY    65  50  58 W20G25    30.12F
$$




USA.gov is the U.S. government's official web portal to all federal, state and local government web resources and services.